Newport Municipal Airport Newport US
ICAO: KONP
IATA: ONP
Category: Medium
Scheduled Services: No

Elevation: 160 ft
TransAlt. 18000 ft.

Airport Communications:
AWOS 3:133.9
SEATTLE CNTR:125.8
CTAF/UNICOM:122.8

KONP Zoom In..

Runways:

(A) RW 02 length 3001 ft width 75 ft
---- / hdg 18

(B) RW 16 length 5398 ft width 150 ft
ILS 111.50 / hdg 158

(C) RW 20 length 3001 ft width 75 ft
---- / hdg 198

(D) RW 34 length 5398 ft width 150 ft
---- / hdg 338

Location; KONP
Day. 19 / Time. 03.35 Zulu
* Altimeter: 30.21
* Temperature: 13° c. 55.4°f.
* Wind from: 350° Speed 12 kn.
Dewpoint: 11° c.
Visibility: 10 Statute Miles.
Clouds: Clear (automated report).

KONP 190335Z AUTO 35012KT 10SM CLR 13/11 A3021 RMK AO2


Wind From 350°
Speed 12 kn.

 
 
jpsmedia.com for Web Design worldairports.se 2018   terms of use